Weather History for Abbotsford, BC

Change the Weather History Date:

Sunday, September 22, 2013

  Actual Average Record
Temperature  
Mean Temperature 58 °F -  
Max Temperature 61 °F 62 °F 80 °F (1997)
Min Temperature 54 °F 43 °F 41 °F (2005)
Degree Days  
Heating Degree Days 8    
Growing Degree Days 8 (Base 50)    
Moisture  
Dew Point 53 °F    
Average Humidity 89    
Maximum Humidity 100    
Minimum Humidity 66    
Precipitation  
Precipitation 0.20 in 0.18 in - ()
Sea Level Pressure  
Sea Level Pressure 29.62 in    
Wind  
Wind Speed 7 mph ()    
Max Wind Speed 22 mph    
Max Gust Speed 37 mph    
Visibility 12.1 miles    
Events Rain    
Averages and records for this station are not official NWS values.
T = Trace of Precipitation, MM = Missing Value Source: Averaged Metar Reports

Daily Weather History Graph

Daily Weather History Graph

Search for Another Location

Airport:

Trip Planner

Search our weather history database for the weather conditions in past years. The results will help you decide how hot, cold, wet, or windy it might be!

Date:

Astronomy

Sep. 22, 2013 Rise Set
Actual Time 6:56 AM PDT 7:06 PM PDT
Civil Twilight 6:24 AM PDT 7:38 PM PDT
Nautical Twilight 5:47 AM PDT 8:15 PM PDT
Astronomical Twilight 5:08 AM PDT 8:53 PM PDT
Moon 8:38 PM PDT (9/22) 10:43 AM PDT (9/22)
Length of Visible Light 13h 13m
Length of Day
12h 10m
Waning Gibbous, 88% of the Moon is Illuminated
Sep 22
Waning Gibbous
Sep 26
Last Quarter
Oct 4
New
Oct 11
First Quarter
Oct 18
Full

Hourly Weather History & Observations

Time (PDT) Temp. Dew Point Humidity Pressure Visibility Wind Dir Wind Speed Gust Speed Precip Events Conditions
12:00 AM 59.0 °F 53.6 °F 82% 29.67 in 10.0 mi Calm Calm - N/A Rain Light Rain Showers
12:18 AM 57.2 °F 53.6 °F 88% 29.67 in 10.0 mi South 2.3 mph - N/A   Overcast
1:00 AM 57.2 °F 55.4 °F 94% 29.67 in 7.0 mi South 4.6 mph - N/A Rain Light Rain Showers
2:00 AM 55.4 °F 55.4 °F 100% 29.67 in 7.0 mi South 5.8 mph - N/A Rain Light Rain Showers
2:14 AM 55.4 °F 55.4 °F 100% 29.67 in 3.0 mi South 9.2 mph - N/A Rain Rain
2:42 AM 55.4 °F 53.6 °F 94% 29.66 in 7.0 mi South 3.5 mph - N/A Rain Light Rain
3:00 AM 55.4 °F 55.4 °F 100% 29.65 in 10.0 mi Variable 2.3 mph - N/A Rain Light Rain
3:37 AM 55.4 °F 55.4 °F 100% 29.64 in 10.0 mi SW 8.1 mph - N/A   Overcast
4:00 AM 55.4 °F 55.4 °F 100% 29.64 in 10.0 mi SW 6.9 mph - N/A   Overcast
5:00 AM 56 °F 55 °F 95% 29.64 in 10 mi SW 5.8 mph - -   Partly Cloudy
5:00 AM 55.4 °F 55.4 °F 100% 29.63 in 10.0 mi SW 5.8 mph - N/A   Overcast
5:54 AM 55.4 °F 53.6 °F 94% 29.63 in 7.0 mi SSW 6.9 mph - N/A Rain Light Rain Showers
6:00 AM 55.4 °F 53.6 °F 94% 29.63 in 7.0 mi SSW 8.1 mph - N/A Rain Light Rain Showers
7:00 AM 55.4 °F 55.4 °F 100% 29.62 in 10.0 mi SSW 6.9 mph - N/A Rain Light Rain Showers
8:00 AM 55.4 °F 53.6 °F 94% 29.61 in 20.0 mi South 8.1 mph - N/A Rain Light Rain Showers
9:00 AM 57.2 °F 53.6 °F 88% 29.60 in 25.0 mi South 4.6 mph - N/A Rain Light Rain Showers
10:00 AM 57.2 °F 51.8 °F 82% 29.58 in 25.0 mi South 10.4 mph - N/A Rain Light Rain Showers
11:00 AM 58 °F 50 °F 66% 29.57 in 25 mi SSE 13.8 mph - - Rain Light Rain Showers
11:00 AM 57.2 °F 50.0 °F 77% 29.57 in 25.0 mi South 12.7 mph 19.6 mph N/A Rain Light Rain Showers
12:00 PM 55.4 °F 50.0 °F 82% 29.55 in 15.0 mi SSE 11.5 mph - N/A Rain Light Rain Showers
12:37 PM 55.4 °F 50.0 °F 82% 29.55 in 10.0 mi SE 9.2 mph - N/A Rain Rain Showers
1:00 PM 55.4 °F 50.0 °F 82% 29.55 in 10.0 mi SE 2.3 mph - N/A Rain Rain Showers
2:00 PM 55.4 °F 53.6 °F 94% 29.54 in 20.0 mi East 4.6 mph - N/A Rain Light Rain Showers
2:16 PM 57.2 °F 51.8 °F 82% 29.54 in 20.0 mi SSE 11.5 mph 17.3 mph N/A   Mostly Cloudy
3:00 PM 60.8 °F 53.6 °F 77% 29.55 in 20.0 mi SSE 13.8 mph 21.9 mph N/A   Mostly Cloudy
4:00 PM 60.8 °F 51.8 °F 72% 29.56 in 25.0 mi South 20.7 mph 36.8 mph N/A   Mostly Cloudy
5:00 PM 60 °F 52 °F 69% 29.58 in 19 mi South 18.4 mph - - Rain Light Rain Showers
5:00 PM 60.8 °F 51.8 °F 72% 29.57 in 20.0 mi South 21.9 mph 29.9 mph N/A Rain Light Rain Showers
5:38 PM 59.0 °F 53.6 °F 82% 29.58 in 20.0 mi South 19.6 mph - N/A   Mostly Cloudy
6:00 PM 59.0 °F 53.6 °F 82% 29.58 in 20.0 mi South 16.1 mph 23.0 mph N/A   Scattered Clouds
7:00 PM 57.2 °F 53.6 °F 88% 29.60 in 20.0 mi South 9.2 mph - N/A   Scattered Clouds
8:00 PM 57.2 °F 53.6 °F 88% 29.62 in 10.0 mi South 11.5 mph - N/A   Mostly Cloudy
9:00 PM 55.4 °F 53.6 °F 94% 29.64 in 10.0 mi South 10.4 mph - N/A   Mostly Cloudy
10:00 PM 55.4 °F 53.6 °F 94% 29.66 in 10.0 mi South 9.2 mph - N/A   Mostly Cloudy
10:33 PM 55.4 °F 53.6 °F 94% 29.67 in 10.0 mi South 3.5 mph - N/A Rain Light Rain Showers
11:00 PM 55 °F 53 °F 91% 29.68 in 10 mi SSW 9.2 mph - - Rain Light Rain Showers
11:00 PM 55.4 °F 53.6 °F 94% 29.68 in 10.0 mi SSW 10.4 mph - N/A   Mostly Cloudy
11:08 PM 55.4 °F 53.6 °F 94% 29.68 in 10.0 mi South 10.4 mph - N/A Rain Light Rain Showers
11:42 PM 55.4 °F 53.6 °F 94% 29.68 in 10.0 mi South 6.9 mph - N/A   Scattered Clouds